Regional Weather Roundup
Issued by NWS Charleston, SC

Home | Current Version | Previous Version | Text Only | Print | Product List | Glossary On
Versions: 1 2 3 4 5 6 7 8 9 10 11 12 13 14 15 16 17 18 19 20 21 22 23 24 25 26 27 28 29 30 31 32 33 34 35 36 37 38 39 40 41 42 43 44 45 46 47 48 49 50
000
ASUS42 KCHS 181227
RWRCHS

Regional Weather Roundup
National Weather Service Charleston SC
700 AM EST THU JAN 18 2018

NOTE: "fair" indicates few or no clouds below 12,000 feet with no
significant weather and/or obstructions to visibility.

Not all stations are quality controlled. Use data with caution,
especially dewpoint observations.

SCZ027-030-031-034>040-042>050-181300-
...Southeast South Carolina...

CITY           SKY/WX    TMP DP  RH WIND       PRES   REMARKS
N Charleston   FAIR      26  12  55 NW12      30.37R WCI  16
6HR MIN TEMP:  25; 6HR MAX TEMP:  32;

Waterfront Prk NOT AVBL
Mount Pleasant FAIR      28  16  59 NW12G17   30.37R WCI  18
Johns Island   FAIR      27  14  59 NW9       30.37S WCI  17
Pinopolis        N/A     27  16  63 NW13      30.28R WCI  16
Moncks Corner  FAIR      23   9  54 NW3       30.38R
Summerville    FAIR      25  12  58 NW8       30.40R WCI  16
Beaufort MCAS  FAIR      25  16  68 NW8       30.40R WCI  16
6HR MIN TEMP:  25; 6HR MAX TEMP:  33;

Beaufort Arpt  FAIR      27  16  63 NW10      30.40R WCI  17
Hilton Head Is CLEAR     27  14  59 NW12      30.40R WCI  16
Walterboro     FAIR      23  14  68 NW8       30.41R WCI  14
Allendale      FAIR      21  12  68 CALM      30.40R

...Southern Midlands and Pee Dee...

CITY           SKY/WX    TMP DP  RH WIND       PRES   REMARKS
Georgetown     FAIR      23  12  63 NW8G20    30.36R WCI  14
Kingstree      FAIR      19  12  73 W3        30.38R
Orangeburg     FAIR      21  12  68 NW8       30.39R WCI  11
6HR MIN TEMP:  21; 6HR MAX TEMP:  29;

Barnwell         N/A     21  12  68 CALM      30.40R
Aiken          FAIR      18  10  73 W5        30.41R WCI  11
Manning        FAIR      23  12  63 MISG      30.39R
Columbia       FAIR      20  14  77 W7        30.38R WCI  11
6HR MIN TEMP:  20; 6HR MAX TEMP:  27;

Sumter         CLEAR     20  11  67 W9        30.35R WCI   9
6HR MIN TEMP:  19; 6HR MAX TEMP:  27;

Florence       FAIR      19   8  62 NW8       30.35R WCI   9
6HR MIN TEMP:  19; 6HR MAX TEMP:  26;

Myrtle Beach   FAIR      22  14  71 NW12      30.34R WCI  10
N Myrtle Beach FAIR      23  17  78 NW10      30.31R WCI  12
6HR MIN TEMP:  23; 6HR MAX TEMP:  30;


$$

GAZ063-065-086>088-099>101-113>116-118-119-134>141-150-181300-
...Southeast Georgia...

CITY           SKY/WX    TMP DP  RH WIND       PRES   REMARKS
Savannah Arpt  FAIR      24  12  60 NW7       30.42R WCI  16
6HR MIN TEMP:  24; 6HR MAX TEMP:  28;

Hunter AAF     FAIR      24  11  59 NW10      30.38R WCI  13
6HR MIN TEMP:  23; 6HR MAX TEMP:  26;

Fort Stewart   FAIR      22  11  61 NW6       30.40R WCI  15
6HR MIN TEMP:  22; 6HR MAX TEMP:  26;

Statesboro     FAIR      22  11  62 NW6       30.42R WCI  14
Sylvania       FAIR      21  15  76 NW7       30.42R WCI  13
Claxton        FAIR      22  14  71 W3        30.44R

...CSRA, Central and far Southeast Georgia...

CITY           SKY/WX    TMP DP  RH WIND       PRES   REMARKS
Thomson        FAIR      17  10  71 NW7       30.46R WCI   8
Augusta-Bush   FAIR      20  11  68 NW5       30.41R WCI  13
6HR MIN TEMP:  20; 6HR MAX TEMP:  26;

Augusta-Daniel FAIR      22   9  57 NW7       30.39R WCI  13
Swainsboro     FAIR      21  14  73 NW7       30.43S WCI  13
Vidalia        FAIR      23  14  68 NW7       30.43R WCI  15
Eastman        FAIR      20   7  57 CALM      30.46F
Hazlehurst     FAIR      22   9  57 CALM      30.43S
Alma           FAIR      22  11  62 NW7       30.43R WCI  13
6HR MIN TEMP:  22; 6HR MAX TEMP:  25;

Waycross       FAIR      23   9  55 N9        30.42R WCI  13
Jesup          FAIR      25  12  58 N8        30.42S WCI  16
Baxley         FAIR      21  10  63 N8        30.42S WCI  12
Brunswick      FAIR      23  14  68 NW7       30.41R WCI  15
Saint Simons   FAIR      24  13  62 NW12      30.39S WCI  13
6HR MIN TEMP:  24; 6HR MAX TEMP:  28;


$$

SCZ027-028-034-036>038-045-046-048>050-GAZ119-141-181300-
...Lake and Supplemental Coastal Observations...

STATION/POSITION TIME  TEMP    WIND        PRES    WAVE   SWELL
                       AIR SEA DIR/SP/G            HT/PER HT/PER/DIR
                 (UTC) (F)     (DEG/KT/KT) (MB)    (FT/S) (FT/S/D)
Winyah Bay       1145   24     310/  7     1027.0R
Lake Murray      1120   20     300/  4/  7 1027.4
ACE Basin NERRS  1145   25     310/  3     1029.0R
Fort Pulaski     1200   26 45  320/ 12/ 16 1029.8
Sapelo Island    1200   26     340/ 11     1029.0

$$

ANZ835-935-AMZ111-154-330-350-352-354-370-450-454-472-181300-
...C-MAN and Buoy Observations...

STATION/POSITION TIME  TEMP    WIND        PRES    WAVE   SWELL
                       AIR SEA DIR/SP/G            HT/PER HT/PER/DIR
                 (UTC) (F)     (DEG/KT/KT) (MB)    (FT/S) (FT/S/D)
Buoy 41004       1210   35 67  320/ 21/ 25 1026.4
Buoy 41008       1150   32 50  320/ 21/ 25 1027.9R   5/ 5   2/100/11
Folly Beach CMAN 1200   27     310/  9/ 16 1028.4R
Capers Nearshore 1108   27 49  330/ 16/ 23 1027.1
Fripp Nearshore  1208   26 47  330/ 17/ 23 1028.1R


STATION/POSITION TIME  TEMP    WIND        PRES    WAVE   SWELL
                       AIR SEA DIR/SP/G            HT/PER HT/PER/DIR
                 (UTC) (F)     (DEG/KT/KT) (MB)    (FT/S) (FT/S/D)
5E St. Marys GA  1200      50                N/A     4/ 4   2/ 90/11
Frying Pan Buoy  1210   33 65  330/ 21/ 29 1024.4
Buoy 41025       1210   30 58  320/ 27/ 35 1019.9
Cape Lookout NC  1200          330/ 18/ 23 1022.5R
Buoy 41002       1150   54 70  300/ 31/ 39 1015.7R  14/ 9  10/280/ 9
Buoy 41010       NOT AVBL
St Augustine FL  1200   27 48  320/ 10/ 13 1029.1R


$$




USA.gov is the U.S. government's official web portal to all federal, state and local government web resources and services.